Overview Statistics Trail Chart Weather Telemetry Raw packets
 

This is the latest recevied weather packets stored in our database for station/object WA6OOO. If no packets are shown the sender has not sent any weather packets the latest 10 day(s).

<< 19 20 21 22 23 24 25 >>
Time Temp. Humidity Pressure Rain* Wind** Luminosity Snow
1788548961 25° C 65% 1016.9 hPa 0 mm - 680 W/m² -
1788548656 24.44° C 67% 1017 hPa 0 mm - 679 W/m² -
1788548352 25° C 65% 1017 hPa 0 mm - 668 W/m² -
1788548048 25° C 66% 1017.1 hPa 0 mm - 667 W/m² -
1788547747 25° C 65% 1017.3 hPa 0 mm - 656 W/m² -
1788547442 25° C 66% 1017.3 hPa 0 mm - 657 W/m² -
1788547137 25° C 63% 1017.3 hPa 0 mm - 649 W/m² -
1788546832 24.44° C 67% 1017.3 hPa 0 mm - 639 W/m² -
1788546528 25° C 65% 1017.3 hPa 0 mm - 643 W/m² -
1788546228 24.44° C 66% 1017.4 hPa 0 mm - 626 W/m² -
1788545924 24.44° C 66% 1017.2 hPa 0 mm - 622 W/m² -
1788545624 25° C 62% 1017.4 hPa 0 mm - 607 W/m² -
1788545319 25.56° C 59% 1017.4 hPa 0 mm - 609 W/m² -
1788545015 25.56° C 56% 1017.4 hPa 0 mm - 597 W/m² -
1788544713 25° C 60% 1017.5 hPa 0 mm - 579 W/m² -
1788544412 25° C 60% 1017.5 hPa 0 mm - 579 W/m² -
1788544106 24.44° C 62% 1017.5 hPa 0 mm - 570 W/m² -
1788543803 24.44° C 62% 1017.5 hPa 0 mm - 554 W/m² -
1788543499 24.44° C 62% 1017.5 hPa 0 mm - 546 W/m² -
1788543194 23.89° C 62% 1017.5 hPa 0 mm - 538 W/m² -
1788542890 23.89° C 64% 1017.8 hPa 0 mm - 499 W/m² -
1788542588 23.89° C 64% 1017.5 hPa 0 mm - 499 W/m² -
1788542284 23.89° C 64% 1017.6 hPa 0 mm - 499 W/m² -
1788541979 23.33° C 65% 1017.3 hPa 0 mm - 494 W/m² -
1788541675 22.78° C 65% 1017.4 hPa 0 mm - 480 W/m² -

* Rain latest hour (hover to see other rain measurements)
** Current wind speed in m/s (hover to see current wind gust speed)